{"data":{"norad_id":52689,"epoch":"2026-08-05T00:59:09.263616Z","epoch_age_seconds":4080463,"freshness":"OLD","line1":"1 52689U 22053AK  26217.04107944  .04782321  11921-4  15438-2 0  9997","line2":"2 52689  53.1904  72.1748 0013855 259.3281 100.6201 16.25151056235322","mean_motion":16.25151056,"eccentricity":0.0013855,"inclination_deg":53.1904,"raan_deg":72.1748,"arg_perigee_deg":259.3281,"mean_anomaly_deg":100.6201,"bstar":0.0015438,"rev_number":23532,"period_min":88.607147913025,"perigee_km":196.48143029342,"apogee_km":214.72497439412,"semimajor_km":6583.7402023438,"source":"CELESTRAK","updated_at":"2026-08-07T09:01:00.191411Z"}}